Wind_Speed
8 8 6 6 8 8 8 8 9 8 13 34 29 18 18 27 38 38 36 33 30 24 22 23 22 23 22 22 21 20 21 20 21 21 21 21 21 20 19 19 19 18 18 18
11 11 11 13 11 11 11 8 10 8 11 23 26 24 21 22 30 40 39 39 31 25 25 26 25 23 22 21 21 22 23 23 22 23 24 23 22 21 20 20 20 20 19 19
7 9 10 12 12 14 13 12 9 4 13 12 21 24 25 27 28 35 40 40 41 38 27 26 24 21 21 20 21 22 23 24 24 24 22 21 21 21 21 21 21 21 20 19
4 6 7 8 12 12 11 14 12 11 7 11 18 16 31 28 29 29 35 37 38 42 42 36 26 22 21 20 22 24 24 23 23 21 20 21 22 23 22 22 22 21 20 20
1 2 6 7 9 11 8 7 12 15 8 9 10 10 26 32 33 32 34 38 38 38 38 36 29 22 24 25 25 26 25 24 22 20 21 22 23 23 23 22 22 22 21 21
2 2 6 7 8 10 5 5 9 14 9 7 14 12 22 27 43 36 34 37 38 37 34 31 27 29 26 28 30 29 26 25 22 22 22 23 24 24 23 24 23 23 22 23
5 1 5 12 8 12 10 9 4 3 6 8 13 12 23 20 28 37 35 34 36 36 36 34 31 28 27 30 33 29 27 25 23 23 24 24 24 25 25 25 24 23 24 23
4 4 4 12 13 10 14 16 3 4 5 8 13 13 20 28 19 29 33 34 34 37 34 35 34 34 28 30 32 30 28 26 25 25 25 25 26 27 27 26 24 24 24 23
3 5 5 7 14 12 13 15 15 3 3 4 12 18 23 17 21 26 32 30 33 33 33 33 32 38 30 34 33 31 31 29 28 27 27 27 27 27 27 26 25 25 24 24
5 4 7 7 13 17 13 14 9 9 3 5 8 14 20 22 20 27 26 27 31 35 37 39 40 38 38 37 34 35 33 31 29 28 27 28 28 28 27 26 26 25 24 24
9 9 6 11 13 15 18 20 12 6 4 3 5 7 15 28 25 21 19 25 26 29 34 35 40 44 42 39 38 35 33 31 30 30 30 30 29 28 27 27 25 25 24 24
10 7 9 13 13 15 20 16 18 16 10 6 3 11 12 8 20 33 29 28 27 36 35 36 38 34 41 42 40 37 33 32 31 32 32 31 30 29 29 27 25 25 25 25
8 8 4 3 11 17 24 28 25 26 16 14 7 9 6 8 5 11 18 16 11 20 31 31 39 39 39 39 41 37 34 33 33 33 33 32 32 31 28 26 25 26 26 26
12 15 14 8 4 6 13 26 29 27 16 21 31 36 29 26 21 17 18 17 20 9 16 29 26 31 33 34 36 36 35 34 34 34 34 34 32 28 27 27 27 26 26 27
17 19 18 20 20 22 22 18 20 34 35 23 29 29 31 27 26 25 23 23 20 13 9 14 16 22 27 30 32 34 35 35 35 34 32 30 29 29 28 27 27 28 28 27
23 17 16 21 18 20 26 26 29 32 31 38 40 43 28 23 17 13 12 19 22 21 20 18 15 18 21 26 30 32 32 32 31 31 31 31 31 30 29 29 29 28 28 27
21 16 12 8 11 12 17 21 26 30 34 34 36 25 24 20 16 18 19 20 20 23 22 22 23 23 21 22 25 27 30 32 32 32 32 32 32 31 30 29 29 28 27 27
21 18 15 6 5 5 11 10 8 8 8 10 9 6 11 12 13 14 15 17 22 28 29 27 24 25 28 28 29 31 32 33 34 34 33 33 32 30 30 30 29 28 28 27
29 25 12 6 10 17 17 17 16 14 7 13 14 13 10 9 8 9 10 14 16 17 20 25 30 31 30 31 32 33 34 34 34 33 32 31 31 32 31 30 29 29 28 27
34 32 21 13 6 5 6 6 5 9 19 11 3 4 7 6 6 7 8 10 12 12 14 17 19 22 30 34 35 35 35 34 33 33 31 32 33 32 31 31 30 29 28 28
23 28 32 24 14 14 21 19 18 7 8 5 6 11 10 8 9 9 10 10 11 11 13 15 16 18 21 28 34 36 36 35 32 31 32 33 32 31 31 30 30 29 29 28
23 19 16 20 12 14 20 22 16 6 3 10 14 13 13 13 15 18 19 20 20 19 19 19 19 18 18 20 25 29 31 30 31 33 33 31 30 31 31 30 30 30 29 28
27 27 19 19 9 7 7 9 6 17 17 14 13 14 17 19 21 24 24 24 23 23 23 23 22 22 23 23 23 24 27 29 31 31 30 30 31 31 31 31 31 31 30 30
23 25 28 26 25 22 22 21 20 21 28 29 28 28 26 25 25 24 24 28 31 32 33 32 28 25 24 23 22 24 27 29 30 30 31 31 32 32 33 33 33 33 32 35
26 24 27 31 29 30 32 33 34 33 20 19 21 27 32 36 35 34 34 33 34 32 28 28 29 28 26 25 25 26 28 30 31 32 32 33 34 35 35 36 37 39 41 39
35 35 33 38 34 33 33 29 27 28 29 31 32 33 35 38 39 38 36 33 34 33 31 31 31 30 29 29 30 32 33 33 34 35 35 35 36 38 40 42 44 43 38 34
Wind_Direction
228 240 241 242 229 230 230 239 236 241 224 205 218 228 228 219 216 211 210 212 210 212 218 224 231 234 234 231 232 234 237 238 244 248 254 258 260 262 265 270 277 284 291 294
239 248 244 242 242 229 231 234 228 241 214 211 214 227 230 219 217 219 217 211 212 211 225 228 233 233 235 235 235 236 238 241 246 252 255 257 258 260 265 272 279 285 288 292
236 248 251 242 240 240 239 233 222 222 218 227 215 229 234 220 217 217 215 216 217 227 232 237 237 239 238 239 241 241 241 242 247 251 254 255 258 261 265 272 278 284 287 293
249 248 246 229 238 241 249 240 223 205 212 221 207 228 226 230 223 218 213 213 215 216 224 231 238 240 246 241 243 242 243 245 247 249 251 254 258 262 267 274 280 284 285 290
327 282 192 205 227 230 239 258 219 221 235 232 218 223 225 226 229 219 215 209 208 209 217 221 232 241 251 246 244 245 245 246 247 248 250 254 259 264 270 277 280 279 281 288
48 130 179 194 210 201 184 198 210 216 227 243 223 223 232 223 223 221 214 213 209 214 215 221 229 234 243 250 252 247 247 248 248 250 253 256 261 266 271 273 274 275 280 285
293 216 219 193 189 189 183 166 126 198 217 235 225 232 230 225 229 226 221 219 220 220 228 229 233 242 250 254 254 247 246 248 248 250 253 257 261 265 267 268 270 273 278 284
259 279 231 199 188 195 193 193 213 218 208 214 221 236 231 230 216 216 222 224 224 226 227 230 236 244 252 253 250 246 245 246 249 251 255 258 261 262 263 263 266 271 278 285
252 261 244 206 195 189 193 206 220 274 272 247 225 249 258 235 228 219 220 221 221 223 229 237 242 252 249 251 249 246 244 246 251 254 256 258 261 259 258 260 264 270 276 282
248 265 236 218 201 213 206 202 206 226 240 241 240 251 237 230 219 226 216 221 229 232 235 241 244 244 244 248 246 245 244 246 248 252 256 259 258 255 256 258 263 270 276 281
245 230 242 220 230 230 217 218 214 205 221 268 279 261 284 241 227 222 221 226 227 228 230 237 241 241 242 241 242 244 245 247 250 253 254 257 255 254 255 259 264 270 275 282
237 239 233 247 250 226 219 224 216 223 226 223 259 276 301 278 223 225 221 231 237 238 238 236 238 239 240 242 242 243 244 247 252 255 254 256 254 253 255 260 266 272 277 284
214 222 238 239 242 233 223 231 231 227 234 229 246 256 201 45 91 166 198 212 243 252 232 240 240 239 237 239 238 239 244 248 253 254 253 252 251 252 256 263 268 272 278 284
241 237 227 245 229 247 232 237 231 235 229 240 239 257 258 269 275 265 263 274 288 284 246 242 240 237 236 236 235 238 242 248 251 250 250 249 250 254 259 263 267 272 278 283
235 251 252 258 262 262 256 252 242 238 245 233 254 262 269 275 276 274 272 277 282 286 264 257 251 242 240 238 237 238 242 247 248 249 249 250 252 254 258 264 269 272 276 279
239 251 262 269 264 262 263 255 248 248 246 250 258 265 279 290 286 291 278 270 269 269 266 255 252 242 241 240 241 244 246 249 251 251 249 248 249 253 258 263 266 271 275 276
236 242 252 261 266 278 275 267 251 253 254 255 258 286 290 292 279 262 251 244 246 249 251 251 244 243 245 247 248 248 248 248 247 245 245 246 249 254 259 263 266 269 271 271
241 242 239 267 264 248 259 260 245 253 261 271 287 306 283 286 281 277 270 259 253 250 250 250 248 247 244 240 241 242 243 244 243 243 245 246 250 257 262 263 266 268 268 265
240 235 231 232 227 271 263 268 265 273 266 297 293 286 284 284 293 293 286 276 269 268 264 257 252 247 240 237 238 241 243 245 245 248 248 251 256 259 261 263 265 265 263 260
230 228 215 223 221 242 255 217 206 274 297 289 240 269 293 308 317 315 308 297 290 285 276 270 265 258 248 245 243 243 245 247 250 250 251 254 258 260 260 260 260 259 257 258
211 219 219 225 237 252 248 254 265 252 270 248 281 300 292 282 285 294 300 298 295 289 281 276 272 266 257 251 251 253 252 253 251 248 253 257 259 259 256 256 256 254 255 258
236 212 202 208 219 250 253 242 232 238 268 298 297 277 269 272 274 281 286 285 285 285 281 280 281 278 270 261 257 257 257 252 248 251 254 256 256 255 254 253 252 253 255 258
232 231 234 221 239 225 155 156 266 285 292 285 285 261 256 254 262 272 273 273 278 285 290 288 280 273 268 265 260 253 250 247 249 255 257 258 257 254 251 251 252 253 254 255
240 241 239 247 247 244 257 270 274 285 285 281 277 279 270 267 266 263 265 273 278 281 283 281 281 277 271 265 259 254 248 246 251 255 259 261 257 252 250 250 251 251 251 256
240 242 245 250 253 263 264 272 272 277 277 269 263 262 263 265 267 271 277 278 281 284 277 272 270 270 268 266 258 251 248 249 249 251 254 256 253 249 249 250 248 251 259 264
251 249 245 252 264 269 267 267 262 263 266 266 268 264 264 266 269 272 274 275 274 275 267 269 267 267 270 270 262 254 249 249 250 252 252 250 251 251 250 249 255 263 263 260
Height
3094 3096 3097 3097 3096 3098 3098 3098 3099 3100 3100 3103 3105 3109 3110 3112 3116 3121 3125 3130 3133 3138 3142 3144 3146 3147 3149 3150 3152 3154 3157 3159 3161 3163 3163 3164 3165 3165 3165 3165 3164 3163 3162 3161
3094 3093 3093 3093 3094 3095 3096 3098 3098 3098 3098 3100 3103 3104 3107 3108 3112 3116 3121 3126 3130 3134 3138 3140 3142 3143 3145 3147 3149 3150 3153 3155 3156 3158 3159 3160 3161 3161 3161 3161 3160 3159 3158 3157
3089 3091 3091 3091 3093 3094 3094 3096 3097 3098 3098 3098 3101 3103 3103 3105 3106 3110 3115 3120 3126 3131 3135 3137 3139 3140 3142 3143 3145 3147 3148 3150 3151 3153 3154 3155 3156 3157 3156 3156 3156 3155 3154 3153
3088 3087 3088 3089 3090 3092 3094 3093 3095 3096 3097 3098 3098 3096 3098 3100 3103 3105 3110 3115 3121 3126 3129 3132 3135 3136 3138 3140 3141 3143 3144 3145 3146 3148 3150 3151 3151 3152 3152 3152 3152 3151 3150 3148
3088 3086 3086 3088 3089 3090 3092 3092 3094 3096 3097 3096 3095 3098 3092 3094 3096 3100 3104 3109 3115 3120 3124 3127 3130 3132 3134 3135 3137 3139 3140 3141 3142 3144 3145 3146 3147 3147 3148 3148 3147 3146 3145 3143
3087 3085 3085 3086 3087 3089 3090 3091 3093 3095 3096 3095 3093 3094 3087 3087 3089 3095 3100 3105 3110 3115 3119 3122 3125 3126 3126 3130 3132 3134 3135 3137 3138 3139 3140 3141 3142 3143 3143 3142 3141 3140 3140 3139
3088 3086 3084 3085 3086 3087 3090 3092 3094 3096 3094 3088 3089 3090 3079 3083 3085 3091 3096 3101 3106 3111 3114 3117 3118 3120 3123 3125 3129 3129 3130 3132 3133 3134 3135 3136 3137 3137 3136 3136 3135 3135 3134 3134
3087 3086 3084 3084 3084 3085 3086 3089 3088 3087 3086 3084 3087 3079 3075 3079 3081 3086 3091 3095 3100 3104 3107 3109 3112 3116 3117 3121 3122 3123 3125 3127 3127 3128 3129 3130 3131 3131 3131 3130 3130 3129 3129 3128
3086 3084 3083 3083 3083 3085 3085 3086 3087 3087 3084 3083 3077 3073 3073 3075 3078 3081 3085 3090 3093 3097 3100 3104 3106 3110 3111 3115 3116 3117 3119 3120 3121 3122 3123 3124 3124 3125 3125 3125 3124 3124 3124 3123
3082 3083 3081 3082 3083 3082 3082 3083 3085 3085 3082 3078 3071 3071 3068 3070 3072 3076 3080 3084 3089 3092 3095 3098 3100 3102 3106 3107 3108 3110 3112 3113 3114 3115 3116 3117 3117 3118 3118 3119 3119 3118 3118 3117
3080 3080 3081 3080 3078 3078 3079 3078 3079 3080 3079 3075 3069 3065 3061 3062 3069 3073 3076 3079 3082 3084 3087 3089 3092 3094 3096 3098 3100 3103 3104 3105 3107 3108 3109 3109 3110 3111 3112 3112 3112 3112 3112 3112
3078 3078 3075 3075 3074 3075 3075 3076 3076 3077 3076 3074 3073 3064 3061 3060 3060 3065 3069 3072 3074 3075 3077 3080 3083 3084 3086 3089 3092 3095 3096 3098 3100 3100 3101 3102 3103 3104 3105 3105 3106 3107 3106 3106
3073 3073 3074 3072 3073 3070 3069 3071 3072 3072 3071 3069 3071 3061 3061 3060 3061 3061 3064 3067 3067 3067 3068 3070 3073 3075 3078 3080 3084 3086 3088 3090 3091 3093 3094 3095 3096 3097 3098 3100 3100 3101 3100 3099
3071 3067 3066 3065 3063 3064 3063 3063 3066 3068 3066 3064 3057 3055 3056 3058 3060 3061 3061 3060 3061 3061 3061 3064 3065 3068 3070 3072 3075 3078 3080 3082 3084 3085 3086 3087 3089 3091 3093 3093 3094 3093 3093 3092
3066 3062 3061 3059 3059 3058 3057 3057 3057 3057 3057 3057 3051 3051 3047 3053 3054 3054 3054 3054 3055 3056 3057 3058 3059 3060 3062 3065 3067 3070 3072 3073 3075 3077 3079 3081 3083 3084 3085 3086 3086 3085 3085 3084
3059 3058 3056 3054 3053 3051 3048 3048 3048 3048 3048 3046 3046 3040 3045 3045 3046 3047 3047 3046 3048 3050 3051 3052 3053 3054 3056 3058 3060 3062 3064 3066 3068 3069 3071 3073 3074 3076 3077 3077 3077 3077 3077 3076
3055 3054 3053 3050 3048 3047 3042 3035 3035 3036 3037 3040 3039 3036 3038 3037 3037 3037 3038 3039 3042 3043 3044 3045 3047 3048 3050 3052 3054 3056 3057 3058 3059 3061 3063 3064 3066 3068 3069 3069 3069 3070 3069 3068
3049 3051 3051 3048 3048 3044 3033 3031 3030 3030 3030 3031 3031 3031 3031 3031 3031 3031 3032 3033 3034 3035 3036 3038 3039 3041 3043 3044 3046 3047 3048 3050 3051 3053 3054 3056 3059 3060 3061 3061 3062 3061 3061 3061
3040 3043 3046 3046 3043 3034 3029 3028 3027 3027 3028 3027 3026 3025 3024 3025 3025 3026 3027 3027 3028 3028 3029 3030 3031 3032 3033 3035 3037 3038 3039 3041 3043 3045 3047 3049 3051 3052 3053 3053 3054 3054 3054 3054
3030 3033 3039 3039 3037 3032 3026 3024 3024 3024 3022 3022 3022 3022 3022 3023 3023 3023 3023 3023 3024 3024 3024 3024 3025 3025 3026 3027 3028 3029 3031 3033 3036 3038 3040 3041 3042 3043 3044 3044 3045 3045 3045 3045
3021 3024 3026 3030 3029 3023 3023 3021 3021 3024 3025 3019 3019 3019 3019 3020 3020 3020 3020 3020 3019 3019 3019 3018 3018 3018 3019 3019 3021 3022 3024 3027 3030 3030 3031 3033 3034 3035 3036 3036 3037 3037 3038 3038
3014 3016 3016 3024 3025 3019 3013 3015 3018 3019 3017 3017 3016 3015 3016 3015 3015 3015 3016 3016 3015 3015 3015 3014 3014 3013 3013 3013 3013 3015 3018 3021 3021 3022 3023 3024 3025 3026 3027 3028 3028 3029 3029 3029
3007 3007 3008 3009 3008 3009 3009 3011 3012 3012 3012 3011 3011 3011 3010 3010 3010 3010 3010 3009 3008 3008 3007 3007 3007 3007 3007 3006 3006 3007 3010 3011 3013 3015 3016 3016 3016 3017 3018 3019 3020 3020 3020 3020
2998 3000 2999 3002 3003 3005 3005 3006 3006 3005 3005 3004 3004 3003 3001 3002 3002 3001 3001 3002 3002 3001 3001 3001 3000 3000 3000 3000 3000 3001 3001 3003 3005 3006 3007 3008 3008 3009 3009 3009 3010 3010 3010 3010
2992 2993 2994 2993 2996 2997 2998 2997 2996 2995 2994 2995 2994 2993 2993 2992 2992 2992 2992 2992 2992 2992 2992 2992 2992 2992 2992 2992 2992 2992 2992 2993 2994 2995 2997 2998 2999 3000 3000 3000 3000 3000 3000 3000
2981 2983 2984 2982 2988 2987 2983 2985 2984 2983 2983 2984 2983 2984 2984 2983 2982 2982 2982 2982 2982 2983 2982 2982 2983 2984 2984 2984 2984 2984 2984 2985 2985 2985 2986 2987 2989 2989 2990 2989 2989 2990 2991 2990